Weather History for Kirksville, MO

Change the Weather History Date:

Sunday, October 27, 2013

  Actual Average Record
Temperature  
Mean Temperature 42 °F 49 °F  
Max Temperature 61 °F 60 °F 85 °F (1927)
Min Temperature 22 °F 39 °F 22 °F (2013)
Degree Days  
Heating Degree Days 23 16  
Month to date heating degree days 343 313  
Since 1 July heating degree days 413 420  
Cooling Degree Days 0 0  
Month to date cooling degree days 32 10  
Year to date cooling degree days 1028 937  
Moisture  
Dew Point 25 °F    
Average Humidity 61    
Maximum Humidity 96    
Minimum Humidity 26    
Precipitation  
Precipitation 0.00 in 0.10 in 1.26 in (1918)
Month to date precipitation 0.72 2.97  
Year to date precipitation 32.30 34.49  
Sea Level Pressure  
Sea Level Pressure 30.08 in    
Wind  
Wind Speed 5 mph (SSW)    
Max Wind Speed 14 mph    
Max Gust Speed 20 mph    
Visibility 10 miles    
Events      
T = Trace of Precipitation, MM = Missing Value Source: NWS Daily Summary

Daily Weather History Graph

Daily Weather History Graph

Search for Another Location

Airport:

Trip Planner

Search our weather history database for the weather conditions in past years. The results will help you decide how hot, cold, wet, or windy it might be!

Date:

Astronomy

Oct. 27, 2013 Rise Set
Actual Time 7:34 AM CDT 6:13 PM CDT
Civil Twilight 7:06 AM CDT 6:41 PM CDT
Nautical Twilight 6:34 AM CDT 7:13 PM CDT
Astronomical Twilight 6:02 AM CDT 7:44 PM CDT
Moon 12:31 AM CDT (10/27) 2:22 PM CDT (10/27)
Length of Visible Light 11h 35m
Length of Day
10h 39m
Last Quarter, 43% of the Moon is Illuminated
Oct 27
Last Quarter
Nov 3
New
Nov 9
First Quarter
Nov 17
Full
Nov 25
Last Quarter

Hourly Weather History & Observations

Time (CDT) Temp. Windchill Dew Point Humidity Pressure Visibility Wind Dir Wind Speed Gust Speed Precip Events Conditions
12:55 AM 28.0 °F 24.2 °F 24.1 °F 85% 30.16 in 10.0 mi NW 3.5 mph - N/A   Clear
1:55 AM 26.1 °F - 23.0 °F 88% 30.15 in 10.0 mi Calm Calm - N/A   Clear
2:55 AM 24.1 °F - 21.9 °F 91% 30.14 in 10.0 mi Calm Calm - N/A   Clear
3:55 AM 24.1 °F - 21.0 °F 88% 30.13 in 10.0 mi Calm Calm - N/A   Clear
4:55 AM 23.0 °F - 19.9 °F 88% 30.12 in 10.0 mi Calm Calm - N/A   Clear
5:55 AM 23.0 °F - 21.0 °F 92% 30.13 in 10.0 mi Calm Calm - N/A   Clear
6:55 AM 24.1 °F 19.7 °F 21.0 °F 88% 30.14 in 10.0 mi SW 3.5 mph - N/A   Clear
7:55 AM 23.0 °F 18.4 °F 21.0 °F 92% 30.14 in 10.0 mi SW 3.5 mph - N/A   Clear
8:55 AM 36.0 °F - 30.0 °F 79% 30.14 in 10.0 mi Calm Calm - N/A   Clear
9:55 AM 44.1 °F 39.5 °F 30.0 °F 58% 30.14 in 10.0 mi SW 8.1 mph - N/A   Clear
10:55 AM 50.0 °F - 28.0 °F 43% 30.13 in 10.0 mi SSW 11.5 mph - N/A   Clear
11:55 AM 53.1 °F - 28.0 °F 38% 30.11 in 10.0 mi SSW 11.5 mph 16.1 mph N/A   Clear
12:55 PM 55.9 °F - 27.0 °F 33% 30.08 in 10.0 mi SW 10.4 mph - N/A   Clear
1:55 PM 57.0 °F - 26.1 °F 30% 30.05 in 10.0 mi SSW 11.5 mph - N/A   Clear
2:55 PM 60.1 °F - 26.1 °F 27% 30.02 in 10.0 mi SSW 10.4 mph 19.6 mph N/A   Clear
3:55 PM 59.0 °F - 25.0 °F 27% 30.01 in 10.0 mi SSW 9.2 mph - N/A   Clear
4:55 PM 57.9 °F - 25.0 °F 28% 30.00 in 10.0 mi SSW 12.7 mph - N/A   Clear
5:55 PM 54.0 °F - 25.0 °F 33% 29.99 in 10.0 mi SSW 5.8 mph - N/A   Clear
6:55 PM 46.0 °F 42.5 °F 26.1 °F 46% 30.01 in 10.0 mi South 6.9 mph - N/A   Clear
7:55 PM 42.1 °F 38.4 °F 27.0 °F 55% 30.02 in 10.0 mi South 5.8 mph - N/A   Clear
8:55 PM 42.1 °F 39.2 °F 27.0 °F 55% 30.02 in 10.0 mi South 4.6 mph - N/A   Clear
9:55 PM 39.9 °F 35.8 °F 27.0 °F 60% 30.03 in 10.0 mi SSW 5.8 mph - N/A   Clear
10:55 PM 41.0 °F 38.0 °F 27.0 °F 57% 30.04 in 10.0 mi SSW 4.6 mph - N/A   Clear
11:55 PM 39.0 °F - 27.0 °F 62% 30.05 in 10.0 mi Calm Calm - N/A   Clear